THORAD AGENA D DEB, 4643

Orbit data source: Space-Track

THORAD AGENA D DEB, 4643 is space debris in SSO originally from a launch on Wed, 08 Apr 1970 UTC launched from the Air Force Western Test Range (AFWTR). Debris objects in space refer to the collection of defunct objects orbiting the Earth. Examples of debris include non-operational satellites, rocket bodies, and fragments generated from explosions, collisions, or faulty payload assembly.

Loading next visibility...
Identifier
4643, 1970-025AB
Orbit
SSO
Country
Flag of USUS
Related business
Manufacturer
Unknown
Mission
Spacecraft
Bus & Motor
Unknown
Mass
Unknown
Launch date (UTC)
1970-04-08 (56 years ago)
Launch vehicle
Unknown
Launch site
Air Force Western Test Range (AFWTR)
Object type
Payload
Rocket body
Debris
Shape & HBR
Unknown shape, 0.2 m
Radar Cross Section
Small (<0.1 m²)

Expand to show TLE details & history
Last TLE update: 21 hours ago

TLE from 21 hours ago
0 THORAD AGENA D DEB
1 04643U 70025AB  25340.82337876  .00000265  00000-0  44389-3 0  9993
2 04643  99.4062 193.4264 0010964 349.3726  27.6700 13.55166602745757
Epoch: 2025-12-06T19:45Z
TLE epoch observation values (Epoch: 2025-12-06T19:45:39.924Z)
Latitude
16.85105°
Longitude
178.30317°
Altitude
1,048.279 km
Speed
7.333 km/s
True Right ascension
12h 42m 15s
True Declination
16° 45' 35"
Sunlit
Object was in daylight at epoch
Visualization orbit readout
Latitude
Unknown
Longitude
Unknown
Altitude
Unknown
Speed
Unknown
Apparent Right ascension
Unknown
Apparent Declination
Unknown
Sunlit
N/A
Visualization observer readout
Local Sidereal Time
15:05:03
Azimuth
Unknown
Elevation
Unknown
Doppler factor
Unknown
Orbital elements
Apogee altitude
1,058.734 km
Perigee altitude
1,042.445 km
Semi-major axis
7,428.726 km
Eccentricity
0.0011
Inclination
99.4062°
RAAN
193.4264°
Arg. of periapsis
349.3726°
True anomaly
27.72841°
Mean anomaly
27.67°
Eccentric anomaly
27.6992°
Mean motion
3.38978 °/min
Orbital period
106.2 mins
BSTAR
0.00044389
Loading maneuver chart data...
Computing Atmospheric mass density...

Documentation

Showing up to 5 results
|